RH
93 91 100 79 94 94 77 38 19 18 55 36 46 13 14 44 55 28 12 10 7 8 11 13 17 22 22 26 28 34 33 29 26 26 36 39 38 36 34 31 24 16 14 11 8
100 76 100 98 91 83 85 84 39 27 98 85 66 94 15 8 41 54 24 14 10 8 9 12 13 14 15 14 18 26 25 24 27 25 21 14 15 12 9 7 7 7 7 7 6
95 86 98 100 100 100 96 94 81 31 98 99 80 70 10 10 14 57 42 21 14 10 7 7 7 9 13 13 18 18 16 7 6 6 6 7 7 7 7 7 7 7 7 6 7
59 90 86 96 100 100 93 98 74 37 63 100 89 100 44 8 12 24 53 34 18 12 8 7 6 6 7 8 9 8 5 5 5 6 6 6 7 7 7 7 7 7 7 7 7
75 100 97 100 99 100 96 74 61 77 61 100 78 100 90 57 30 24 39 44 24 15 11 9 7 6 5 6 6 5 5 5 6 6 6 6 7 7 7 7 6 7 6 6 6
71 100 91 99 81 56 64 63 47 99 66 72 98 96 100 49 30 31 29 46 34 19 14 10 7 6 5 5 5 5 6 6 6 6 7 8 7 6 8 11 10 9 8 7 6
93 54 43 42 39 25 28 40 42 97 85 63 70 99 97 79 43 34 38 40 38 20 14 10 6 6 6 6 6 6 6 7 7 8 7 6 7 8 11 13 12 12 11 12 10
43 71 50 34 26 24 64 55 49 100 79 62 100 100 100 77 31 27 25 41 39 27 16 9 7 6 6 6 7 7 7 7 7 6 6 8 15 18 17 16 18 17 18 16 16
90 93 55 43 31 26 48 64 46 99 93 98 100 100 75 75 78 63 48 48 41 28 18 10 7 7 7 7 7 7 7 7 6 7 9 14 19 19 20 21 24 27 26 27 28
80 72 37 50 35 45 60 88 68 95 86 97 100 97 99 77 82 70 53 56 42 29 21 13 8 8 8 8 7 7 6 6 7 10 18 19 21 25 22 24 30 32 31 30 25
39 40 44 63 50 47 64 72 100 96 82 100 100 100 89 69 50 58 60 63 53 37 26 18 11 8 7 7 7 7 8 10 16 19 21 21 21 32 37 41 42 33 26 18 11
30 36 80 100 97 100 94 60 91 94 91 97 90 94 97 79 84 86 73 59 58 46 35 25 19 15 12 11 12 16 20 23 22 22 24 30 34 42 48 44 33 20 13 10 7
48 80 100 57 49 46 64 66 64 56 70 99 91 59 71 86 99 92 83 74 59 50 37 31 28 25 24 23 24 25 24 25 26 31 34 36 43 46 40 26 16 10 8 7 12
83 81 73 89 97 94 100 100 70 72 57 61 54 64 79 74 71 70 68 64 61 59 51 43 37 34 30 29 32 33 33 37 40 43 45 46 35 30 20 14 9 8 9 16 23
48 89 82 97 100 100 100 100 78 60 40 89 70 36 69 81 71 73 67 60 66 61 60 52 48 45 42 40 42 44 42 42 48 51 44 30 19 13 11 9 8 11 17 20 21
54 37 33 36 52 54 82 89 86 58 66 84 82 74 67 70 64 56 58 59 56 52 51 49 46 45 43 40 42 48 51 48 37 25 17 16 13 10 9 11 16 18 22 19 11
68 56 40 42 50 33 32 32 28 31 42 47 55 59 55 51 50 56 56 53 47 47 42 41 46 51 48 46 43 35 28 21 17 16 13 11 10 10 14 19 19 22 14 8 6
40 53 43 40 46 38 25 20 24 30 36 44 50 51 45 57 56 53 48 44 42 45 46 43 41 37 28 23 19 18 17 16 14 12 11 11 13 20 19 24 20 12 7 6 5
15 17 20 32 39 35 32 37 28 33 36 40 44 29 24 25 25 30 37 40 37 32 24 20 15 13 12 12 11 11 11 11 14 20 19 18 19 17 14 11 9 7 6 5 4
9 9 8 8 12 19 28 18 14 12 12 13 13 15 18 18 14 10 10 9 9 9 8 8 8 8 9 13 16 23 24 24 23 17 15 13 11 10 8 7 6 5 4 4 4
10 9 8 10 12 12 12 10 12 12 13 15 11 12 12 11 13 16 17 16 16 15 16 16 17 15 12 10 10 10 9 8 8 9 8 7 7 8 8 7 5 4 4 4 4
7 8 7 10 12 16 14 12 12 12 12 12 12 12 12 11 10 10 9 9 8 8 6 6 6 5 5 5 6 6 6 6 6 7 6 6 5 8 7 6 5 6 7 8 10
7 7 7 7 8 10 11 10 10 10 10 10 10 10 10 10 10 9 9 10 11 11 12 12 12 13 13 12 13 12 12 13 13 12 12 8 10 6 7 8 11 12 14 15 16
13 10 9 8 7 8 8 8 8 9 8 8 9 9 10 12 13 14 16 16 16 17 17 17 16 17 17 18 18 18 18 18 18 17 15 15 14 16 14 15 15 15 15 15 16
11 14 15 14 13 11 10 11 12 12 15 16 18 19 20 19 18 18 16 14 13 12 13 13 13 13 14 11 10 8 9 9 8 10 11 17 18 19 19 18 18 18 18 19 20
6 6 11 15 17 17 16 18 18 19 20 18 18 16 14 13 11 10 10 10 10 10 10 11 9 10 10 10 8 8 7 6 6 7 6 5 7 5 12 16 19 19 20 20 21
47 13 6 6 8 11 13 12 12 12 11 11 11 10 9 8 8 9 9 8 9 10 12 11 12 13 14 11 9 9 8 8 9 7 7 7 6 5 5 6 7 11 15 16 16
Wind_Speed
15 21 22 31 26 30 35 45 49 48 41 47 49 49 50 54 51 51 49 46 42 38 35 32 31 32 32 32 34 37 37 37 37 32 30 32 32 33 33 29 26 24 24 22 21
9 10 18 25 33 32 34 38 47 50 47 48 42 30 47 46 49 49 49 46 43 40 38 34 32 32 33 31 29 29 30 29 28 26 23 22 20 19 19 17 18 20 21 23 23
9 13 25 22 27 23 29 34 41 52 55 47 49 49 50 42 43 48 47 45 43 41 38 35 33 31 31 30 29 28 26 21 22 20 19 16 16 16 18 18 19 21 24 24 26
5 15 17 20 35 14 25 29 33 48 64 58 51 33 37 46 41 44 44 44 43 41 39 37 34 32 30 30 29 27 24 24 23 20 19 18 18 19 20 23 23 25 27 29 31
3 18 16 23 34 24 27 29 29 41 55 60 53 35 36 37 39 39 42 43 42 41 38 35 34 31 31 30 29 28 27 25 24 23 22 22 22 21 24 27 29 30 31 33 35
7 17 15 14 20 14 17 28 32 39 46 58 54 44 35 35 40 37 41 42 41 39 37 35 33 32 32 31 30 29 27 26 25 24 23 23 25 25 27 31 34 34 35 35 37
3 14 13 18 18 12 17 28 33 37 43 49 53 39 40 39 39 38 38 39 39 39 36 35 35 33 31 30 30 29 28 26 26 25 25 26 28 30 32 32 35 36 37 38 40
6 9 17 19 20 13 14 20 37 38 45 50 45 40 35 36 39 37 38 41 41 40 38 36 36 35 34 32 30 29 28 27 28 27 28 29 30 32 32 34 35 36 37 39 39
24 6 21 21 16 13 12 19 40 42 51 60 39 43 43 40 40 39 41 41 41 41 39 36 34 35 35 33 33 32 30 29 28 31 31 32 32 33 33 34 34 36 39 39 39
40 41 24 22 16 11 19 29 37 38 42 50 36 26 29 35 33 36 39 40 40 40 39 36 34 34 34 33 32 33 33 33 33 32 33 34 33 34 37 36 37 37 36 35 36
39 41 40 36 28 20 24 36 34 30 40 40 31 25 35 25 21 30 35 40 40 40 39 38 36 34 35 35 35 34 34 35 36 36 34 35 34 33 37 41 40 35 32 34 37
41 33 47 47 44 39 33 32 28 18 37 40 23 24 28 28 29 31 35 39 40 41 42 39 38 37 36 35 34 34 34 35 37 37 39 37 38 40 37 33 32 30 33 36 38
53 48 53 45 39 39 32 27 22 21 34 30 17 17 17 23 26 27 27 30 36 38 37 36 35 35 34 34 33 33 34 36 38 39 42 42 36 32 30 29 29 31 34 35 31
51 50 49 47 48 42 37 41 41 32 31 21 19 11 15 19 17 18 23 25 25 30 32 34 33 32 32 32 33 33 36 38 37 37 34 31 28 24 27 28 30 32 29 28 27
46 50 47 42 47 48 48 43 43 35 26 23 21 15 15 17 16 19 18 21 20 19 21 21 23 25 27 28 28 29 30 30 29 26 24 25 27 25 26 27 28 23 23 25 27
49 44 38 39 39 37 37 46 46 42 39 37 35 32 28 27 24 25 23 21 20 20 18 18 17 19 21 23 24 24 23 22 22 23 24 24 26 25 26 21 18 21 21 24 26
42 40 38 36 37 34 29 27 27 29 29 29 30 26 22 20 21 18 17 18 15 15 15 15 16 16 16 16 16 17 19 21 23 22 22 23 26 19 13 16 19 17 20 23 29
40 39 35 33 34 37 29 22 23 23 23 22 19 17 14 13 13 12 12 10 9 8 8 9 9 10 10 12 15 16 18 19 21 21 21 18 11 12 13 15 15 17 22 26 25
36 37 37 38 38 35 29 22 25 24 21 20 19 19 17 14 11 10 8 7 6 5 4 5 6 7 8 10 13 15 14 15 14 12 11 9 13 12 14 15 18 22 25 24 19
46 43 40 37 34 30 25 24 26 26 26 25 25 27 26 24 21 17 11 7 5 4 2 1 1 2 2 4 6 8 8 11 13 12 12 13 14 16 18 20 23 26 23 20 18
38 39 41 42 41 38 34 37 37 36 34 30 28 26 23 23 23 22 21 19 17 14 11 7 4 1 4 7 9 12 13 14 14 18 19 20 17 18 20 23 24 22 19 18 21
30 30 32 33 33 32 30 29 28 28 26 23 23 23 23 22 19 18 16 14 11 9 7 5 3 3 6 8 9 13 16 17 19 20 22 25 16 20 23 23 20 22 23 23 24
23 23 24 25 25 25 23 23 23 22 21 19 18 18 18 18 17 15 14 13 11 9 7 6 6 7 7 10 12 11 15 16 18 18 14 21 19 20 20 22 21 23 23 23 25
19 19 19 18 19 19 19 19 19 18 18 18 17 17 16 16 15 14 13 12 11 10 10 10 12 12 14 16 13 12 17 21 22 19 23 17 18 21 26 25 24 25 28 31 31
13 14 14 15 16 16 15 16 16 16 16 16 15 15 14 14 13 12 11 11 11 11 11 11 11 12 14 19 20 16 14 20 20 20 24 18 27 31 28 27 27 29 28 26 31
15 9 9 10 11 12 12 12 12 12 12 12 12 12 12 11 11 12 12 11 13 13 13 13 13 10 14 18 19 16 19 19 18 16 19 13 10 27 28 29 31 32 29 27 30
11 12 11 7 6 6 6 7 8 8 8 8 8 9 10 11 11 11 10 8 7 9 12 12 12 11 12 14 14 15 16 18 19 19 19 19 16 16 15 14 16 22 27 30 28
Wind_Direction
241 236 223 221 222 226 223 212 210 207 205 215 213 225 218 217 216 218 219 219 219 220 222 221 224 227 231 234 237 237 239 243 247 251 256 255 257 260 263 264 262 260 260 258 249
116 170 173 203 213 235 219 211 202 194 176 207 195 217 218 214 213 214 216 217 217 218 220 222 224 228 229 231 230 232 238 240 248 249 240 242 242 247 248 250 254 259 260 258 255
200 180 214 197 177 189 209 207 200 190 178 197 201 201 219 215 213 211 212 212 213 214 215 217 221 223 229 229 229 230 229 229 226 219 223 219 228 244 254 259 263 265 263 260 264
257 208 207 202 200 223 211 202 195 191 190 190 197 184 209 217 213 210 208 211 211 212 213 214 216 220 223 226 220 218 216 210 212 208 217 228 237 248 258 264 265 266 267 265 263
162 148 176 186 193 204 204 196 186 183 190 182 188 180 185 201 207 207 207 209 209 210 211 213 217 218 220 219 217 212 210 209 213 215 225 236 246 256 263 269 271 271 270 269 268
197 157 162 160 143 140 174 188 178 179 183 187 180 185 195 203 206 203 207 206 207 209 210 209 210 216 217 214 212 213 211 214 221 228 236 246 255 263 270 277 279 278 275 275 275
191 185 176 159 160 140 164 180 180 178 177 181 179 183 188 193 199 195 197 202 204 205 206 206 206 208 212 214 214 215 219 225 233 241 248 257 267 274 277 279 280 281 283 284 281
194 193 191 170 163 163 166 171 177 172 170 161 169 188 191 197 210 209 195 200 199 203 204 205 205 208 210 214 221 225 229 235 243 251 261 271 276 279 280 283 286 287 287 285 288
55 160 191 174 180 169 155 161 168 171 171 165 171 171 186 191 184 187 189 196 198 200 203 205 208 209 212 217 224 231 239 244 252 260 267 273 277 278 281 284 284 285 287 291 289
64 74 120 167 187 155 143 128 162 177 181 168 150 149 165 175 177 185 189 190 198 200 202 205 210 214 218 223 229 235 242 249 255 262 269 272 277 282 285 287 288 287 287 284 283
58 73 81 91 102 112 129 145 126 155 175 146 124 106 175 184 190 183 188 191 198 200 204 207 211 217 223 228 234 241 249 257 262 265 267 272 277 276 281 283 284 282 282 283 286
71 71 88 96 100 105 119 146 151 129 169 142 115 88 152 164 179 186 192 193 194 201 206 210 215 221 227 234 241 248 254 261 267 273 276 276 278 281 279 278 275 281 284 286 288
80 73 83 93 101 119 113 119 126 142 171 148 134 128 126 142 160 173 180 189 196 204 207 214 220 226 234 240 247 255 262 267 270 273 274 276 276 276 277 276 281 283 284 287 290
75 73 79 88 99 103 100 108 105 115 118 126 133 131 136 161 167 155 169 177 187 199 209 218 223 230 237 246 254 260 264 267 270 271 272 273 271 273 276 279 281 284 287 294 303
65 73 76 89 84 89 94 99 110 120 100 101 115 137 131 146 157 166 172 177 177 189 204 214 226 233 239 245 250 256 261 263 266 269 272 277 275 274 277 282 286 287 294 296 305
66 72 73 76 73 66 76 78 90 98 98 105 111 115 121 129 133 138 143 150 157 171 183 195 212 226 238 245 251 256 260 265 270 275 277 279 279 281 284 284 288 293 297 305 310
66 73 73 75 73 73 78 84 85 86 92 107 113 115 119 124 136 144 149 155 161 174 187 203 219 230 239 246 254 264 272 278 277 281 283 283 283 285 277 283 288 296 305 312 312
63 68 73 80 81 80 83 84 89 92 97 102 101 100 98 107 127 143 154 162 168 175 189 205 218 231 252 268 276 280 280 282 285 287 285 281 278 281 285 283 289 300 307 309 317
66 69 73 76 75 74 75 80 89 95 91 89 85 84 85 87 93 100 107 122 141 154 176 224 252 267 277 281 284 290 282 285 289 288 275 269 284 291 290 294 298 301 303 305 306
71 73 76 78 75 74 78 84 86 86 87 88 89 89 89 88 91 99 119 120 121 135 178 114 179 209 204 268 272 284 283 286 291 293 279 285 291 293 296 305 303 301 299 294 301
68 72 74 78 82 84 86 89 92 92 92 92 90 88 90 91 91 94 100 106 108 114 116 117 123 200 281 291 292 292 289 290 289 287 293 300 293 292 293 293 302 304 303 302 306
62 64 71 77 84 87 86 83 81 82 82 80 74 71 70 76 84 88 90 88 86 80 73 58 20 328 305 303 297 295 292 296 295 293 299 292 294 296 288 297 298 303 303 306 307
49 58 62 65 76 81 80 77 75 73 71 68 66 63 64 68 72 73 71 68 64 56 42 22 357 344 326 314 315 305 295 302 298 300 308 299 310 304 293 297 297 301 305 306 308
42 44 51 60 59 60 61 63 68 65 63 61 60 59 60 60 58 55 49 45 35 24 9 356 342 343 331 322 321 313 306 306 303 308 297 313 300 299 303 310 303 303 305 307 307
33 40 43 44 53 61 60 56 56 58 61 62 62 58 52 48 44 37 26 17 7 0 349 349 334 344 318 324 346 351 325 315 319 305 300 292 295 291 295 295 298 298 297 301 306
37 21 28 43 41 48 54 60 62 60 55 50 45 40 35 30 23 15 10 7 360 2 9 5 11 5 345 353 355 356 351 356 356 353 16 357 294 297 291 288 287 294 297 298 302
14 30 38 15 17 22 27 39 41 46 45 44 36 29 18 11 7 4 6 10 24 18 13 10 13 21 353 359 354 353 352 354 353 357 0 2 3 5 358 340 320 302 297 297 295